Wind_Speed
17 16 17 18 18 18 17 17 16 15 14 15 15 14 13 11 9 8 8 7 7 6 5 6 8 9 10 11 13 16 18 20 21 22 22 21 20 19 20 21 22 21
19 19 19 20 20 20 20 20 19 17 16 16 16 15 14 13 11 9 8 8 7 6 6 7 8 9 10 12 14 16 18 19 21 21 21 20 18 17 18 19 21 22
21 21 21 21 22 22 23 23 21 19 18 17 17 17 16 14 12 10 9 8 7 7 7 8 8 8 10 13 15 16 17 18 20 21 21 20 18 17 17 18 19 21
23 23 23 24 25 25 25 24 23 20 19 18 19 19 17 16 13 12 10 8 7 7 8 9 9 9 11 13 15 15 16 17 19 21 22 21 19 18 17 17 19 20
25 25 25 26 27 27 27 25 24 23 21 20 21 20 18 17 15 13 11 9 8 8 8 9 10 11 12 13 14 15 16 18 20 21 22 22 21 20 19 18 19 20
25 26 27 28 28 28 27 26 26 25 23 22 22 22 20 18 16 15 13 10 9 9 9 10 11 11 13 14 15 16 18 19 20 21 22 22 22 22 21 20 20 20
24 26 28 29 29 29 27 27 28 27 25 24 24 23 21 19 17 16 14 12 10 10 10 10 11 12 13 14 15 17 19 21 21 22 22 22 22 22 22 22 22 23
22 25 27 28 29 29 28 28 28 28 27 26 24 23 22 20 19 17 14 13 11 10 11 11 11 12 13 14 16 18 20 21 22 23 23 23 23 23 23 23 23 25
20 22 24 26 27 28 28 28 28 28 27 25 24 24 23 22 21 18 15 13 12 11 11 11 12 13 13 15 16 18 20 21 23 24 25 25 26 25 24 23 23 24
19 19 21 22 23 25 25 26 26 26 25 25 25 25 24 23 22 19 16 14 13 12 12 11 13 14 15 15 17 19 20 21 23 24 26 27 28 28 26 25 23 24
18 18 18 19 20 22 24 25 25 25 25 25 26 25 24 25 23 19 16 15 15 14 12 12 13 15 16 16 17 19 20 22 23 24 26 28 29 29 28 27 25 24
18 18 17 17 18 21 23 24 24 25 25 26 27 26 26 26 23 19 18 17 16 14 13 13 14 16 17 17 18 20 21 22 23 24 27 28 29 29 29 28 27 25
18 18 18 18 19 21 23 24 23 24 25 26 27 27 28 27 23 20 20 20 17 15 13 13 14 16 17 17 19 20 21 22 23 25 27 28 29 29 29 29 28 27
18 19 19 20 21 22 24 24 23 24 25 27 28 28 28 26 23 22 22 20 17 15 14 14 15 16 17 18 19 19 21 22 24 26 27 28 29 30 30 29 29 28
20 20 21 22 23 23 23 23 24 25 26 28 28 28 28 26 24 24 23 20 17 16 15 14 15 16 17 18 19 20 21 24 26 27 28 29 30 31 31 31 29 28
22 22 22 23 24 24 24 24 24 26 28 28 28 28 28 27 26 24 22 20 18 17 16 15 16 17 17 18 20 21 22 24 27 28 30 32 33 35 35 33 31 29
25 24 24 24 24 25 25 25 26 27 28 29 28 29 29 27 26 24 22 20 20 18 16 16 16 16 17 19 21 22 23 24 27 29 32 35 37 39 38 36 33 31
27 27 27 26 26 26 26 26 27 28 29 29 29 30 29 28 27 24 22 22 21 19 17 16 16 16 17 20 22 22 23 25 28 30 32 36 39 40 39 36 32 30
29 29 29 29 28 28 27 26 27 28 29 30 31 31 31 30 27 25 24 23 21 19 18 17 17 16 18 20 23 23 23 26 28 30 31 34 37 37 34 30 28 28
31 31 31 31 31 30 30 29 27 26 28 31 33 33 32 30 28 26 25 23 21 20 19 19 18 17 18 21 23 24 25 27 28 29 31 33 33 33 31 28 28 29
32 33 33 34 34 33 32 31 29 27 28 31 34 34 32 31 29 27 26 25 23 21 21 20 19 19 20 22 24 25 25 27 27 27 30 32 32 31 31 31 31 32
33 34 36 37 37 36 33 32 31 29 28 30 34 34 33 32 30 29 27 26 24 23 22 21 20 21 22 24 26 25 26 27 28 28 30 32 33 32 32 33 35 36
35 35 37 38 39 38 36 34 33 31 28 29 33 34 34 33 31 30 29 27 26 25 23 22 22 23 24 26 27 26 27 29 30 30 32 33 35 35 35 36 38 40
38 38 39 40 39 39 38 35 35 33 31 30 32 34 35 34 32 32 31 30 28 26 25 24 24 25 26 28 27 26 28 31 33 33 34 35 36 37 37 38 41 43
39 40 41 40 39 39 38 37 36 35 33 32 33 34 35 36 35 34 34 32 29 28 27 27 26 26 28 29 28 27 29 32 34 34 34 36 38 39 40 42 44 45
38 41 42 40 38 38 39 39 38 38 37 35 34 35 36 37 37 37 36 34 31 30 30 29 27 27 30 31 30 30 32 34 34 34 36 38 40 41 43 44 46 48
Wind_Direction
236 236 238 242 244 245 245 246 247 248 251 255 262 269 273 275 270 262 262 273 285 295 314 325 325 326 331 334 336 337 338 339 341 341 340 340 339 338 336 334 334 335
238 237 239 243 247 248 247 247 247 249 251 255 261 267 271 271 266 258 259 268 280 292 306 314 317 322 326 328 330 334 337 340 342 343 342 341 339 337 334 331 329 329
239 239 241 243 245 247 248 249 250 250 251 255 258 262 265 267 263 254 253 262 273 285 298 304 308 315 319 323 327 332 337 340 343 345 345 343 339 335 333 330 328 328
238 238 240 242 244 247 250 253 254 252 251 252 254 258 261 263 260 252 250 255 262 274 289 296 299 307 314 319 324 330 335 338 342 346 346 344 340 336 334 332 330 330
241 239 239 242 245 248 250 253 255 254 251 251 254 257 258 257 254 250 249 251 255 266 279 288 295 304 312 316 320 326 332 335 341 345 345 345 343 340 337 334 331 332
245 244 244 245 248 250 251 252 253 254 251 251 253 254 254 253 247 243 245 248 253 263 272 280 291 302 309 314 317 323 329 333 339 343 344 344 342 341 339 337 333 331
248 247 247 247 249 251 251 251 252 253 252 250 251 252 253 249 242 238 240 244 251 261 269 276 287 298 305 311 316 321 326 331 336 340 342 343 342 339 338 338 335 332
251 249 248 248 249 251 251 251 252 252 252 249 248 249 249 245 240 237 237 241 249 259 266 275 285 294 302 309 314 319 325 329 333 337 340 341 342 341 339 339 337 333
255 253 251 250 250 251 252 252 251 250 249 246 242 243 245 242 238 236 237 241 248 256 264 275 285 292 299 306 311 316 323 328 332 337 340 340 341 341 341 340 337 332
260 258 255 254 252 251 250 250 248 247 244 240 238 240 241 239 237 235 236 240 247 253 262 274 283 289 296 302 308 314 320 327 333 338 342 342 342 341 341 340 336 331
265 263 260 256 252 249 247 247 246 244 241 238 237 237 236 234 235 234 235 239 244 250 260 272 279 286 294 300 307 313 319 326 333 339 343 345 344 342 341 340 336 330
267 266 263 256 250 246 245 246 245 244 241 238 235 232 230 230 232 232 233 237 241 247 256 265 274 283 291 300 308 314 319 326 333 338 342 343 344 342 342 341 337 332
267 262 259 254 247 245 245 245 244 243 240 236 232 227 226 229 230 231 232 235 238 243 250 258 269 280 290 301 309 315 322 328 333 336 339 341 341 340 340 340 338 335
269 262 256 252 248 246 246 246 244 242 238 233 229 226 227 229 230 230 231 234 236 240 245 254 267 279 290 301 309 318 325 330 333 334 336 338 338 337 337 337 337 336
270 267 261 255 251 248 249 249 245 241 237 232 229 228 229 231 231 230 232 235 237 238 242 252 266 278 290 301 310 320 327 330 331 331 332 334 334 334 334 333 333 333
268 269 267 263 258 252 248 248 246 241 237 234 231 230 231 232 231 231 234 237 237 237 242 254 267 278 291 303 311 320 326 328 328 329 330 330 329 329 328 327 328 329
266 268 269 269 266 259 251 247 246 244 240 237 234 233 233 233 232 232 235 236 235 238 246 257 268 280 294 305 311 317 322 326 327 328 328 327 325 324 321 320 321 323
267 267 268 269 269 266 259 251 248 246 243 240 239 238 237 234 232 234 235 233 235 240 250 259 269 283 296 303 306 312 319 324 326 327 326 325 324 321 317 314 315 319
266 266 267 269 269 267 263 258 253 250 247 244 243 241 239 235 234 235 234 233 238 245 252 260 271 284 294 298 302 308 316 321 323 324 324 323 323 324 321 316 315 318
264 266 268 269 268 264 262 262 261 256 251 247 245 244 240 236 235 235 234 236 242 248 254 262 272 282 289 294 299 306 313 318 320 322 323 322 323 327 331 327 322 320
262 266 268 269 268 264 261 264 266 263 256 250 247 246 242 237 236 235 235 239 245 249 256 264 272 279 286 292 297 304 311 316 316 317 320 322 323 327 331 329 325 322
260 263 267 269 268 266 264 267 269 267 261 255 251 248 243 238 236 236 238 242 247 251 257 264 271 278 285 290 295 302 309 311 309 310 315 320 322 324 327 327 325 322
260 261 264 266 267 267 268 269 270 267 264 260 256 251 246 241 240 240 242 244 247 252 258 264 270 277 283 288 293 301 307 306 305 308 313 316 319 320 322 324 324 322
261 261 262 262 263 266 267 267 267 266 265 262 259 254 248 243 242 242 243 245 248 254 259 263 269 276 282 287 292 299 303 302 302 307 311 312 314 316 319 322 321 319
261 259 257 256 257 261 264 263 263 264 263 259 258 255 249 243 242 243 244 247 250 254 258 262 268 276 282 286 290 297 301 301 301 305 309 310 312 315 318 319 318 316
258 255 253 251 251 254 258 259 258 260 260 257 256 255 249 243 242 244 246 248 251 254 258 263 269 276 280 283 288 295 298 299 301 304 307 309 312 314 314 314 313 312
Height
5908 5909 5910 5910 5910 5910 5910 5910 5911 5912 5912 5913 5913 5914 5914 5914 5914 5914 5914 5914 5914 5914 5914 5913 5913 5913 5912 5912 5911 5910 5909 5908 5907 5906 5904 5903 5902 5900 5898 5897 5895 5894
5906 5907 5907 5908 5908 5909 5908 5908 5908 5909 5910 5911 5912 5912 5912 5912 5912 5912 5912 5912 5912 5912 5912 5912 5912 5911 5911 5911 5910 5909 5908 5907 5906 5905 5903 5901 5900 5899 5897 5896 5894 5892
5904 5904 5905 5905 5906 5906 5906 5906 5906 5907 5908 5909 5910 5910 5911 5910 5910 5911 5911 5911 5911 5911 5910 5911 5911 5910 5910 5910 5909 5908 5907 5906 5905 5904 5902 5900 5899 5897 5896 5894 5893 5891
5902 5902 5902 5902 5903 5903 5904 5904 5905 5906 5906 5907 5907 5908 5909 5909 5909 5909 5909 5909 5910 5909 5909 5909 5909 5909 5909 5909 5908 5907 5906 5905 5904 5902 5901 5899 5897 5896 5895 5893 5891 5890
5899 5899 5900 5900 5900 5901 5902 5903 5903 5903 5904 5904 5905 5906 5907 5907 5907 5907 5907 5908 5908 5908 5908 5907 5907 5907 5907 5907 5906 5906 5905 5904 5903 5901 5900 5898 5896 5895 5894 5892 5890 5888
5896 5897 5897 5897 5897 5898 5899 5901 5901 5901 5902 5902 5903 5903 5904 5905 5905 5905 5905 5906 5906 5906 5906 5906 5906 5906 5905 5905 5905 5904 5903 5902 5901 5900 5899 5897 5895 5893 5892 5891 5889 5887
5893 5894 5895 5895 5895 5896 5897 5898 5898 5899 5900 5900 5900 5901 5902 5902 5903 5903 5903 5904 5904 5904 5905 5905 5904 5904 5904 5903 5903 5902 5901 5901 5900 5899 5897 5896 5894 5892 5890 5889 5887 5885
5890 5891 5892 5892 5893 5894 5894 5895 5896 5896 5897 5897 5898 5899 5899 5900 5900 5901 5901 5901 5902 5902 5902 5903 5903 5902 5902 5902 5901 5900 5899 5899 5898 5897 5895 5894 5892 5891 5889 5887 5885 5883
5887 5888 5889 5890 5891 5891 5892 5893 5893 5894 5894 5895 5896 5896 5896 5897 5897 5898 5899 5899 5899 5900 5900 5901 5900 5900 5900 5900 5899 5899 5898 5897 5896 5895 5893 5892 5890 5889 5887 5886 5884 5882
5885 5886 5886 5887 5888 5889 5889 5890 5890 5891 5892 5893 5893 5894 5894 5895 5895 5896 5896 5896 5897 5897 5898 5898 5898 5898 5898 5898 5898 5897 5896 5895 5894 5893 5891 5890 5888 5886 5885 5884 5882 5881
5882 5883 5884 5885 5886 5886 5887 5887 5888 5889 5889 5890 5891 5891 5892 5892 5893 5893 5894 5894 5894 5895 5896 5896 5896 5896 5896 5896 5896 5895 5894 5893 5892 5891 5889 5888 5886 5884 5883 5882 5881 5879
5881 5881 5882 5883 5883 5884 5884 5885 5885 5886 5887 5887 5888 5889 5890 5890 5891 5892 5892 5892 5892 5893 5893 5894 5894 5894 5894 5894 5893 5893 5892 5891 5890 5889 5887 5886 5884 5883 5881 5880 5879 5877
5879 5880 5880 5881 5881 5881 5882 5883 5884 5884 5884 5885 5886 5886 5887 5888 5889 5890 5890 5890 5890 5891 5891 5892 5892 5892 5891 5891 5891 5891 5890 5889 5888 5887 5885 5884 5882 5881 5879 5878 5877 5875
5878 5878 5878 5879 5879 5879 5880 5881 5882 5882 5882 5882 5883 5884 5885 5886 5887 5887 5887 5888 5888 5889 5889 5889 5890 5889 5889 5889 5889 5888 5888 5886 5886 5884 5883 5882 5880 5878 5877 5876 5874 5873
5876 5876 5877 5877 5877 5878 5879 5880 5880 5880 5880 5880 5881 5882 5883 5884 5885 5885 5886 5886 5886 5886 5887 5887 5887 5887 5887 5887 5886 5886 5885 5884 5883 5882 5881 5879 5878 5876 5875 5873 5872 5871
5874 5875 5875 5875 5875 5876 5877 5878 5878 5878 5878 5878 5880 5880 5881 5882 5882 5883 5884 5884 5884 5884 5885 5885 5885 5885 5885 5884 5883 5883 5883 5882 5881 5879 5878 5877 5875 5873 5872 5871 5869 5868
5873 5873 5873 5873 5874 5874 5875 5876 5876 5876 5876 5877 5878 5878 5879 5880 5880 5881 5882 5882 5882 5882 5883 5883 5883 5883 5882 5881 5881 5881 5880 5880 5878 5877 5875 5873 5872 5870 5869 5867 5866 5865
5871 5871 5871 5872 5872 5872 5873 5873 5874 5874 5875 5875 5876 5877 5877 5877 5878 5879 5880 5880 5880 5881 5880 5880 5880 5880 5880 5879 5878 5878 5877 5877 5875 5874 5873 5871 5869 5867 5865 5863 5862 5861
5869 5869 5870 5870 5870 5871 5870 5871 5871 5872 5873 5874 5874 5874 5874 5875 5876 5877 5877 5878 5878 5878 5878 5878 5877 5877 5877 5876 5875 5875 5874 5873 5872 5871 5870 5868 5866 5863 5861 5859 5858 5857
5867 5867 5868 5868 5868 5868 5868 5868 5869 5870 5871 5871 5871 5871 5872 5873 5874 5874 5875 5875 5876 5875 5875 5875 5875 5875 5874 5873 5872 5871 5870 5869 5868 5867 5866 5864 5862 5860 5857 5856 5855 5853
5864 5865 5865 5866 5866 5866 5866 5866 5867 5867 5868 5868 5868 5869 5870 5871 5872 5872 5873 5873 5873 5873 5872 5872 5872 5872 5871 5870 5869 5867 5866 5865 5864 5862 5861 5860 5858 5856 5854 5853 5852 5850
5861 5862 5862 5862 5862 5863 5864 5864 5864 5865 5865 5865 5866 5866 5867 5868 5869 5870 5871 5871 5870 5870 5870 5870 5869 5868 5867 5866 5865 5863 5862 5860 5858 5857 5857 5857 5855 5853 5851 5850 5848 5846
5857 5858 5858 5858 5859 5859 5861 5861 5861 5862 5863 5863 5863 5863 5865 5866 5867 5868 5868 5868 5867 5867 5867 5867 5866 5865 5864 5863 5861 5860 5858 5856 5854 5854 5854 5853 5852 5850 5848 5847 5844 5842
5852 5853 5853 5854 5855 5856 5857 5858 5858 5859 5859 5860 5860 5861 5862 5863 5864 5864 5864 5864 5864 5864 5864 5863 5862 5861 5860 5859 5858 5857 5855 5853 5853 5853 5851 5850 5849 5848 5845 5843 5840 5838
5846 5846 5847 5848 5850 5852 5853 5854 5854 5855 5855 5856 5856 5857 5858 5859 5859 5859 5860 5860 5861 5860 5860 5859 5859 5858 5857 5855 5854 5854 5852 5850 5850 5849 5847 5846 5845 5843 5841 5838 5836 5834
5840 5840 5841 5842 5845 5847 5848 5849 5849 5850 5850 5851 5852 5853 5854 5854 5855 5856 5856 5857 5856 5856 5855 5855 5855 5855 5853 5852 5851 5850 5849 5848 5847 5845 5843 5842 5840 5838 5836 5834 5832 5829